User: anonymous   Login
Location: Caltech
(34.1382°N, 118.1253°W)
Time: 10:41:41
(UTC-07:00)
Language:

JAS-1B - Orbit

View from above orbital plane
View from above orbital plane
View from above satellite
View from above satellite

Ground track
Ground track

The orbit data is extracted from the following two-line orbital elements,

1 20480U 90013C   17085.84729818 -.00000035 +00000-0 -31051-5 0  9990
2 20480 099.0389 234.4843 0539783 217.4256 138.8085 12.83415469271112
Epoch (UTC): 26 March 2017 20:20:06
Eccentricity: 0.0539783
inclination: 99.0389°
perigee height: 912 km
apogee height: 1744 km
right ascension of ascending node: 234.4843°
argument of perigee: 217.4256°
revolutions per day: 12.83415469
mean anomaly at epoch: 138.8085°
orbit number at epoch: 27111

The dashed part of the orbit path shows where the satellite is in the earth's shadow,  

DLR